Overview Statistics Trail Chart Weather Telemetry Raw packets
 

This is the latest recevied weather packets stored in our database for station/object S57PNX-8. If no packets are shown the sender has not sent any weather packets the latest 10 day(s).

<< 23 24 25 26 27 28 29 >>
Time Temp. Humidity Pressure Rain* Wind** Luminosity Snow
1788187899 27.78° C 42% 1022.3 hPa - - - -
1788187001 26.67° C 47% 1022.4 hPa - - - -
1788186103 26.11° C 47% 1022.3 hPa - - - -
1788185203 26.11° C 49% 1022.2 hPa - - - -
1788184304 25.56° C 49% 1022.3 hPa - - - -
1788183405 25.56° C 50% 1022.3 hPa - - - -
1788182506 25.56° C 50% 1022.4 hPa - - - -
1788181607 25.56° C 50% 1022.5 hPa - - - -
1788180707 25° C 52% 1022.5 hPa - - - -
1788179809 25° C 51% 1022.6 hPa - - - -
1788178909 25° C 50% 1022.7 hPa - - - -
1788178010 25° C 55% 1022.7 hPa - - - -
1788177112 24.44° C 54% 1022.7 hPa - - - -
1788176213 24.44° C 55% 1022.7 hPa - - - -
1788175314 23.89° C 58% 1022.7 hPa - - - -
1788174415 23.89° C 59% 1022.8 hPa - - - -
1788173516 23.33° C 60% 1022.8 hPa - - - -
1788172617 23.33° C 60% 1023 hPa - - - -
1788171717 23.33° C 60% 1023 hPa - - - -
1788170818 23.33° C 60% 1023.2 hPa - - - -
1788169917 23.33° C 61% 1023.2 hPa - - - -
1788169018 23.33° C 62% 1023.1 hPa - - - -
1788168119 22.78° C 62% 1023.1 hPa - - - -
1788167220 22.78° C 64% 1023.1 hPa - - - -
1788166321 21.67° C 64% 1023.1 hPa - - - -

* Rain since midnight (hover to see other rain measurements)
** Current wind speed in m/s (hover to see current wind gust speed)